TimeEST,TemperatureF,Dew PointF,Humidity,Sea Level PressureIn,VisibilityMPH,Wind Direction,Wind SpeedMPH,Gust SpeedMPH,PrecipitationIn,Events,Conditions,WindDirDegrees,DateUTC
12:54 AM,37.9,30.0,73,29.76,10.0,West,8.1,-,N/A,,Clear,270,2011-11-11 05:54:00
1:54 AM,37.0,30.0,76,29.77,10.0,West,6.9,-,N/A,,Clear,280,2011-11-11 06:54:00
2:54 AM,35.6,28.4,75,29.75,10.0,WNW,5.8,-,N/A,,Mostly Cloudy,290,2011-11-11 07:54:00
3:54 AM,36.0,28.9,76,29.76,10.0,West,9.2,-,N/A,,Partly Cloudy,280,2011-11-11 08:54:00
4:54 AM,35.1,27.0,72,29.76,10.0,West,10.4,-,N/A,,Clear,280,2011-11-11 09:54:00
5:54 AM,36.0,27.0,70,29.78,10.0,West,9.2,-,N/A,,Overcast,270,2011-11-11 10:54:00
6:54 AM,36.0,27.0,70,29.79,10.0,West,8.1,-,N/A,,Overcast,280,2011-11-11 11:54:00
7:54 AM,37.0,28.0,70,29.80,10.0,West,12.7,-,N/A,,Mostly Cloudy,280,2011-11-11 12:54:00
8:54 AM,37.9,28.0,68,29.81,10.0,West,9.2,-,N/A,,Overcast,260,2011-11-11 13:54:00
9:54 AM,41.0,28.0,60,29.81,10.0,West,12.7,-,N/A,,Overcast,260,2011-11-11 14:54:00
10:54 AM,42.1,25.0,51,29.82,10.0,West,17.3,25.3,N/A,,Overcast,270,2011-11-11 15:54:00
11:54 AM,43.0,27.0,53,29.81,10.0,WSW,18.4,27.6,N/A,,Overcast,250,2011-11-11 16:54:00
12:54 PM,44.1,27.0,51,29.81,10.0,West,16.1,25.3,N/A,,Overcast,270,2011-11-11 17:54:00
1:54 PM,44.1,25.0,47,29.82,10.0,West,15.0,27.6,N/A,,Mostly Cloudy,260,2011-11-11 18:54:00
2:54 PM,44.1,28.0,53,29.85,10.0,West,12.7,20.7,0.00,,Scattered Clouds,280,2011-11-11 19:54:00
3:54 PM,44.6,26.6,49,29.86,10.0,West,12.7,18.4,N/A,,Mostly Cloudy,270,2011-11-11 20:54:00
4:54 PM,42.1,26.1,53,29.89,10.0,West,9.2,-,N/A,,Mostly Cloudy,270,2011-11-11 21:54:00
5:54 PM,41.0,27.0,57,29.93,10.0,West,11.5,20.7,N/A,,Overcast,260,2011-11-11 22:54:00
6:54 PM,39.9,28.9,65,29.95,10.0,West,8.1,-,N/A,,Partly Cloudy,270,2011-11-11 23:54:00
7:54 PM,39.9,28.9,65,29.97,10.0,West,6.9,-,N/A,,Overcast,260,2011-11-12 00:54:00
8:54 PM,39.9,28.9,65,29.99,10.0,West,4.6,-,N/A,,Overcast,270,2011-11-12 01:54:00
9:54 PM,39.9,28.0,63,30.00,10.0,West,5.8,-,N/A,,Overcast,270,2011-11-12 02:54:00
10:54 PM,39.0,28.0,65,30.01,10.0,WSW,6.9,-,N/A,,Overcast,250,2011-11-12 03:54:00
11:54 PM,37.0,28.0,70,30.02,10.0,West,4.6,-,N/A,,Partly Cloudy,280,2011-11-12 04:54:00